Location: Praha
(50.0830°N, 14.4670°E)
Time: 06:51:11
(UTC+01:00)

ISS - Pass Details

Date: 04 December 2019
Orbit: 411 x 421 km, 51.6° (Epoch: 15 December)

Event Time Altitude Azimuth Distance (km) Brightness Sun altitude
Rises 16:47:45 0° 273° (W) 2,354 1.2 -7.2°
Reaches altitude 10° 16:49:51 10° 277° (W) 1,493 0.0 -7.5°
Maximum altitude 16:53:11 64° 0° (N) 466 -3.7 -8.0°
Enters shadow 16:56:27 11° 83° (E) 1,464 -1.6 -8.5°
